Home > Weather > Wunstorf > Past weeks

Flag for Germany Past Weather in Wunstorf, Lower Saxony, Germany — Yesterday and Last 2 Weeks

Now
57 °F

Scattered clouds.


Feels Like: 56 °F
Forecast: 59 / 69 °F
Wind: 6 mph from West

Location: Wunstorf Airport

Current Time: Jun 28, 2016 at 9:49:24 AM

Latest Report: Jun 28, 2016 at 8:20 AM


Visibility: N/A

Pressure: 30.09 "Hg

Humidity: 82%

Dew Point: 52 °F

Location of WunstorfLocation

Past Weather in Wunstorf — Graph

°F

Wunstorf Temperature Yesterday

Maximum temperature yesterday: 72 °F (at 2:20 PM)
Minimum temperature yesterday: 54 °F (at 1:20 AM)
Average temperature yesterday: 62 °F

High & Low Weather Summary for the Past Weeks

 TemperatureHumidityPressure
High90 °F (Jun 23, 3:20 PM)94% (Jun 13, 2:56 PM)30.21 "Hg (Jun 13, 2:56 PM)
Low48 °F (Jun 20, 3:20 AM)43% (Jun 20, 12:20 PM)29.45 "Hg (Jun 14, 5:20 PM)
Average64 °F77%29.88 "Hg
* Reported Jun 13 8:20 AM — Jun 28 8:20 AM, Wunstorf, Weather by CustomWeather, © 2016

Note: Actual official high and low records may vary slightly from our data, if they occured in-between our weather recording intervals... More about our weather records

Advertising

Wunstorf Weather History for the Previous 24 Hours

Scroll right to see more
 ConditionsComfort  
Time TempWeatherWind HumidityBarometerVisibility
8:20 AM
Tue, Jun 28
57 °FScattered clouds.6 mph82%30.09 "HgN/A
7:20 AM55 °FScattered clouds.6 mph88%30.09 "HgN/A
6:20 AM54 °FScattered clouds.5 mph94%30.09 "HgN/A
5:20 AM54 °FPassing clouds.7 mph94%30.07 "HgN/A
4:20 AM55 °FCool.6 mph94%30.07 "Hg3 mi
3:20 AM57 °FCool.6 mph94%30.07 "Hg3 mi
2:20 AM57 °FCool.12 mph88%30.07 "Hg4 mi
1:20 AM59 °FCool.12 mph94%30.07 "Hg4 mi
12:20 AM61 °FCool.6 mph88%30.04 "Hg4 mi
11:20 PM
Mon, Jun 27
61 °FCool.7 mph94%30.04 "Hg2 mi
10:20 PM61 °FCool.6 mph94%30.04 "Hg2 mi
9:20 PM63 °FMild.8 mph83%30.01 "Hg4 mi
8:20 PM63 °FMild.8 mph83%30.01 "Hg4 mi
7:20 PM64 °FLight rain. Partly sunny.13 mph78%30.01 "HgN/A
6:20 PM66 °FPartly sunny.13 mph64%30.01 "HgN/A
5:20 PM68 °FPartly sunny.15 mph60%30.01 "HgN/A
4:20 PM70 °FPartly sunny.12 mph53%30.01 "HgN/A
3:20 PM70 °FScattered clouds.15 mph50%30.01 "HgN/A
2:20 PM72 °FScattered clouds.14 mph50%30.01 "HgN/A
1:20 PM68 °FScattered clouds.15 mph53%30.04 "HgN/A
12:20 PM68 °FScattered clouds.16 mph53%30.04 "HgN/A
11:20 AM66 °FPassing clouds.14 mph60%30.04 "HgN/A
10:20 AM64 °FScattered clouds.15 mph64%30.04 "HgN/A
9:20 AM63 °FPassing clouds.14 mph73%30.04 "HgN/A
Weather by CustomWeather, © 2016

See weather overviewHow to use our weather pages